,,,PA_Meas_PMT16A,,PR_Meas_QMR101_102,,RH_Meas_QMH101,,SR_Meas_QMS101,,TA_Meas_QMH101,,GenWind,,GenWind,
date,time,status,PA,status,PR,status,RH,status,SR,status,TA,status,DirAvg,status,SpdAvg,
2010-09-21, 00:00:04,VALID,1003.3,VALID,0,VALID,83.0861,VALID,0.100563,VALID,26.9557,VALID,27,VALID,0.749609,
2010-09-21, 00:01:04,VALID,1003.29,VALID,0,VALID,83.0785,VALID,0,VALID,26.9362,VALID,3,VALID,1.01836,
2010-09-21, 00:02:04,VALID,1003.31,VALID,0,VALID,82.987,VALID,0,VALID,26.8952,VALID,339,VALID,0.869922,
2010-09-21, 00:03:04,VALID,1003.31,VALID,0,VALID,82.903,VALID,0,VALID,26.8952,VALID,5,VALID,1.17539,
2010-09-21, 00:04:04,VALID,1003.33,VALID,0,VALID,82.903,VALID,0,VALID,26.9147,VALID,9,VALID,0.984375,
2010-09-21, 00:05:04,VALID,1003.33,VALID,0,VALID,82.9259,VALID,0,VALID,26.9342,VALID,33,VALID,0.786328,
2010-09-21, 00:06:04,VALID,1003.35,VALID,0,VALID,82.9488,VALID,0.100563,VALID,26.9557,VALID,21,VALID,0.872656,
2010-09-21, 00:07:04,VALID,1003.38,VALID,0,VALID,82.8878,VALID,0.100563,VALID,26.9147,VALID,29,VALID,1.175,
2010-09-21, 00:08:04,VALID,1003.38,VALID,0,VALID,83.2769,VALID,0,VALID,26.8952,VALID,28,VALID,0.983594,
2010-09-21, 00:09:04,VALID,1003.38,VALID,0,VALID,83.4447,VALID,0.100563,VALID,26.8757,VALID,25,VALID,0.887891,
2010-09-21, 00:10:04,VALID,1003.42,VALID,0,VALID,83.582,VALID,0,VALID,26.8368,VALID,16,VALID,0.800391,
2010-09-21, 00:11:04,VALID,1003.43,VALID,0,VALID,83.5286,VALID,0,VALID,26.8173,VALID,10,VALID,1.38164,
2010-09-21, 00:12:04,VALID,1003.44,VALID,0,VALID,83.6125,VALID,0,VALID,26.8388,VALID,20,VALID,1.40469,
2010-09-21, 00:13:04,VALID,1003.46,VALID,0,VALID,83.5134,VALID,0,VALID,26.8583,VALID,27,VALID,0.657031,
2010-09-21, 00:14:04,VALID,1003.47,VALID,0,VALID,83.6659,VALID,0,VALID,26.8193,VALID,13,VALID,0.601953,
2010-09-21, 00:15:04,VALID,1003.46,VALID,0,VALID,83.7575,VALID,0,VALID,26.7804,VALID,8,VALID,0.776563,
2010-09-21, 00:16:04,VALID,1003.5,VALID,0,VALID,83.8338,VALID,0,VALID,26.7804,VALID,32,VALID,0.363672,
2010-09-21, 00:17:04,VALID,1003.5,VALID,0,VALID,83.7804,VALID,0,VALID,26.7609,VALID,29,VALID,1.04531,
2010-09-21, 00:18:04,VALID,1003.54,VALID,0,VALID,84.0092,VALID,0,VALID,26.7414,VALID,6,VALID,1.12812,
2010-09-21, 00:19:04,VALID,1003.53,VALID,0,VALID,84.2762,VALID,0,VALID,26.7414,VALID,2,VALID,0.645703,
2010-09-21, 00:20:04,VALID,1003.54,VALID,0,VALID,83.8948,VALID,0,VALID,26.7199,VALID,24,VALID,2.29961,
2010-09-21, 00:21:04,VALID,1003.58,VALID,0,VALID,83.3913,VALID,0,VALID,26.8563,VALID,34,VALID,0.894922,
2010-09-21, 00:22:04,VALID,1003.62,VALID,0,VALID,83.254,VALID,0,VALID,26.8368,VALID,38,VALID,1.43711,
2010-09-21, 00:23:04,VALID,1003.63,VALID,0,VALID,83.3226,VALID,0,VALID,26.8778,VALID,24,VALID,1.03203,
2010-09-21, 00:24:04,VALID,1003.61,VALID,0,VALID,83.376,VALID,0.100563,VALID,26.8563,VALID,40,VALID,0.769922,
2010-09-21, 00:25:04,VALID,1003.64,VALID,0,VALID,83.6202,VALID,0,VALID,26.8173,VALID,34,VALID,0.861328,
2010-09-21, 00:26:04,VALID,1003.66,VALID,0,VALID,83.6125,VALID,0,VALID,26.7978,VALID,23,VALID,1.43906,
2010-09-21, 00:27:04,VALID,1003.63,VALID,0,VALID,83.5668,VALID,0.100563,VALID,26.7978,VALID,358,VALID,1.05078,
2010-09-21, 00:28:04,VALID,1003.72,VALID,0,VALID,83.6888,VALID,0,VALID,26.7978,VALID,41,VALID,0.612109,
2010-09-21, 00:29:04,VALID,1003.74,VALID,0,VALID,83.5744,VALID,0.100563,VALID,26.7978,VALID,15,VALID,1.26406,
2010-09-21, 00:30:04,VALID,1003.75,VALID,0,VALID,83.643,VALID,0,VALID,26.7978,VALID,15,VALID,0.714453,
2010-09-21, 00:31:04,VALID,1003.82,VALID,0,VALID,83.788,VALID,0,VALID,26.7783,VALID,7,VALID,0.547656,
2010-09-21, 00:32:04,VALID,1003.83,VALID,0,VALID,83.8185,VALID,0,VALID,26.7589,VALID,23,VALID,0.723437,
2010-09-21, 00:33:04,VALID,1003.84,VALID,0,VALID,83.9101,VALID,0,VALID,26.7199,VALID,20,VALID,0.932813,
2010-09-21, 00:34:04,VALID,1003.86,VALID,0,VALID,84.0016,VALID,0.100563,VALID,26.7199,VALID,20,VALID,0.685938,
2010-09-21, 00:35:04,VALID,1003.88,VALID,0,VALID,83.9253,VALID,0,VALID,26.7199,VALID,25,VALID,1.33984,
2010-09-21, 00:36:04,VALID,1003.89,VALID,0,VALID,84.0931,VALID,0,VALID,26.7199,VALID,12,VALID,0.807031,
2010-09-21, 00:37:04,VALID,1003.91,VALID,0,VALID,83.9024,VALID,0,VALID,26.7199,VALID,30,VALID,0.821094,
2010-09-21, 00:38:04,VALID,1003.92,VALID,0,VALID,84.2381,VALID,0,VALID,26.7004,VALID,4,VALID,0.617969,
2010-09-21, 00:39:04,VALID,1003.97,VALID,0,VALID,84.1542,VALID,0,VALID,26.6809,VALID,3,VALID,1.35977,
2010-09-21, 00:40:04,VALID,1003.99,VALID,0,VALID,84.0321,VALID,0,VALID,26.6809,VALID,5,VALID,0.996484,
2010-09-21, 00:41:04,VALID,1004.02,VALID,0,VALID,84.1466,VALID,0,VALID,26.7179,VALID,30,VALID,0.532422,
2010-09-21, 00:42:04,VALID,1004.04,VALID,0,VALID,84.0703,VALID,0,VALID,26.7199,VALID,21,VALID,0.682422,
2010-09-21, 00:43:04,VALID,1004.09,VALID,0,VALID,83.7651,VALID,0,VALID,26.7199,VALID,42,VALID,1.34414,
2010-09-21, 00:44:04,VALID,1004.1,VALID,0,VALID,83.9329,VALID,0,VALID,26.7394,VALID,21,VALID,0.956641,
2010-09-21, 00:45:04,VALID,1004.16,VALID,0,VALID,83.9863,VALID,0,VALID,26.7219,VALID,14,VALID,1.01406,
2010-09-21, 00:46:04,VALID,1004.19,VALID,0,VALID,84.0474,VALID,0,VALID,26.7219,VALID,25,VALID,0.491797,
2010-09-21, 00:47:04,VALID,1004.21,VALID,0,VALID,84.1008,VALID,0,VALID,26.683,VALID,10,VALID,0.967578,
2010-09-21, 00:48:04,VALID,1004.23,VALID,0,VALID,84.3602,VALID,0,VALID,26.644,VALID,27,VALID,0.844922,
2010-09-21, 00:49:04,VALID,1004.22,VALID,0,VALID,84.6119,VALID,0,VALID,26.5855,VALID,20,VALID,1.03008,
2010-09-21, 00:50:04,VALID,1004.25,VALID,0,VALID,84.7492,VALID,0,VALID,26.5835,VALID,27,VALID,1.04023,
2010-09-21, 00:51:04,VALID,1004.27,VALID,0,VALID,84.6348,VALID,0,VALID,26.5815,VALID,19,VALID,1.08984,
2010-09-21, 00:52:04,VALID,1004.31,VALID,0,VALID,84.6119,VALID,0.100563,VALID,26.6225,VALID,23,VALID,0.942969,
2010-09-21, 00:53:04,VALID,1004.32,VALID,0,VALID,84.4136,VALID,0.100563,VALID,26.6399,VALID,13,VALID,1.25703,
2010-09-21, 00:54:04,VALID,1004.33,VALID,0,VALID,84.5204,VALID,0.100563,VALID,26.6614,VALID,18,VALID,0.848828,
2010-09-21, 00:55:04,VALID,1004.36,VALID,0,VALID,84.3144,VALID,0.100563,VALID,26.6614,VALID,15,VALID,1.28633,
2010-09-21, 00:56:04,VALID,1004.36,VALID,0,VALID,84.2534,VALID,0.100563,VALID,26.6809,VALID,10,VALID,1.2082,
2010-09-21, 00:57:04,VALID,1004.36,VALID,0,VALID,83.9863,VALID,0,VALID,26.7004,VALID,4,VALID,1.42656,
2010-09-21, 00:58:04,VALID,1004.41,VALID,0,VALID,84.0245,VALID,0,VALID,26.7394,VALID,22,VALID,1.06211,
2010-09-21, 00:59:04,VALID,1004.41,VALID,0,VALID,84.0016,VALID,0,VALID,26.7394,VALID,36,VALID,1.31914,
2010-09-21, 01:00:04,VALID,1004.45,VALID,0,VALID,84.1237,VALID,0.100563,VALID,26.7394,VALID,24,VALID,1.12734,
2010-09-21, 01:01:04,VALID,1004.48,VALID,0,VALID,83.9482,VALID,0.100563,VALID,26.7179,VALID,25,VALID,1.73789,
2010-09-21, 01:02:04,VALID,1004.5,VALID,0,VALID,84.0779,VALID,0,VALID,26.7394,VALID,8,VALID,1.24844,
2010-09-21, 01:03:04,VALID,1004.52,VALID,0,VALID,83.7575,VALID,0.100563,VALID,26.7589,VALID,13,VALID,1.41445,
2010-09-21, 01:04:04,VALID,1004.54,VALID,0,VALID,83.8033,VALID,0.100563,VALID,26.7568,VALID,25,VALID,1.33633,
2010-09-21, 01:05:04,VALID,1004.55,VALID,0,VALID,83.8643,VALID,0.100563,VALID,26.7589,VALID,8,VALID,1.36289,
2010-09-21, 01:06:04,VALID,1004.5,VALID,0,VALID,83.4752,VALID,0,VALID,26.7783,VALID,22,VALID,1.92461,
2010-09-21, 01:07:04,VALID,1004.56,VALID,0,VALID,83.3608,VALID,0,VALID,26.8368,VALID,4,VALID,1.74297,
2010-09-21, 01:08:04,VALID,1004.57,VALID,0,VALID,83.1167,VALID,0,VALID,26.8173,VALID,2,VALID,2.78867,
2010-09-21, 01:09:04,VALID,1004.61,VALID,0,VALID,83.0709,VALID,0,VALID,26.8563,VALID,6,VALID,2.23359,
2010-09-21, 01:10:04,VALID,1004.62,VALID,0,VALID,82.8878,VALID,0,VALID,26.8973,VALID,357,VALID,2.44805,
2010-09-21, 01:11:04,VALID,1004.68,VALID,0,VALID,83.0404,VALID,0,VALID,26.9362,VALID,25,VALID,1.29727,
2010-09-21, 01:12:04,VALID,1004.68,VALID,0,VALID,82.9564,VALID,0,VALID,26.8757,VALID,20,VALID,2.20039,
2010-09-21, 01:13:04,VALID,1004.7,VALID,0,VALID,83.2235,VALID,0,VALID,26.8778,VALID,10,VALID,0.944922,
2010-09-21, 01:14:04,VALID,1004.71,VALID,0,VALID,83.3989,VALID,0,VALID,26.8388,VALID,16,VALID,1.32852,
2010-09-21, 01:15:04,VALID,1004.74,VALID,0,VALID,83.7575,VALID,0,VALID,26.8193,VALID,22,VALID,0.964453,
2010-09-21, 01:16:04,VALID,1004.77,VALID,0,VALID,83.7575,VALID,0,VALID,26.7394,VALID,18,VALID,1.50742,
2010-09-21, 01:17:04,VALID,1004.77,VALID,0,VALID,84.0245,VALID,0,VALID,26.7609,VALID,16,VALID,0.946484,
2010-09-21, 01:18:04,VALID,1004.8,VALID,0,VALID,84.1694,VALID,0,VALID,26.7219,VALID,9,VALID,0.775,
2010-09-21, 01:19:04,VALID,1004.85,VALID,0,VALID,84.4059,VALID,0,VALID,26.6809,VALID,27,VALID,0.557813,
2010-09-21, 01:20:04,VALID,1004.86,VALID,0,VALID,84.5814,VALID,0,VALID,26.642,VALID,10,VALID,0.930078,
2010-09-21, 01:21:04,VALID,1004.92,VALID,0,VALID,84.5509,VALID,0,VALID,26.6225,VALID,28,VALID,1.78555,
2010-09-21, 01:22:04,VALID,1004.92,VALID,0,VALID,84.3602,VALID,0,VALID,26.6614,VALID,357,VALID,1.30156,
2010-09-21, 01:23:04,VALID,1004.93,VALID,0,VALID,84.3373,VALID,0,VALID,26.7219,VALID,19,VALID,1.02891,
2010-09-21, 01:24:04,VALID,1004.92,VALID,0,VALID,84.3296,VALID,0,VALID,26.7024,VALID,16,VALID,1.06172,
2010-09-21, 01:25:04,VALID,1004.94,VALID,0,VALID,84.3068,VALID,0,VALID,26.6614,VALID,8,VALID,1.3875,
2010-09-21, 01:26:04,VALID,1004.94,VALID,0,VALID,84.2762,VALID,0,VALID,26.6614,VALID,10,VALID,1.2418,
2010-09-21, 01:27:04,VALID,1004.95,VALID,0,VALID,84.2076,VALID,0,VALID,26.6614,VALID,5,VALID,2.2207,
2010-09-21, 01:28:04,VALID,1004.94,VALID,0,VALID,84.1237,VALID,0,VALID,26.7414,VALID,15,VALID,1.52383,
2010-09-21, 01:29:04,VALID,1004.97,VALID,0,VALID,84.1237,VALID,0,VALID,26.7219,VALID,360,VALID,1.53633,
2010-09-21, 01:30:04,VALID,1004.97,VALID,0,VALID,84.3754,VALID,0,VALID,26.7219,VALID,19,VALID,0.678125,
2010-09-21, 01:31:04,VALID,1005,VALID,0,VALID,84.4441,VALID,0,VALID,26.683,VALID,359,VALID,1.04922,
2010-09-21, 01:32:04,VALID,1005,VALID,0,VALID,84.6806,VALID,0,VALID,26.6245,VALID,5,VALID,0.978516,
2010-09-21, 01:33:04,VALID,1005.04,VALID,0,VALID,84.7721,VALID,0,VALID,26.6225,VALID,13,VALID,1.25156,
2010-09-21, 01:34:04,VALID,1005.05,VALID,0,VALID,84.7797,VALID,0,VALID,26.6225,VALID,48,VALID,0.921094,
2010-09-21, 01:35:04,VALID,1005.04,VALID,0,VALID,84.8332,VALID,0,VALID,26.5835,VALID,32,VALID,1.08477,
2010-09-21, 01:36:04,VALID,1005.05,VALID,0,VALID,85.1459,VALID,0,VALID,26.5446,VALID,12,VALID,0.758594,
2010-09-21, 01:37:04,VALID,1005.07,VALID,0,VALID,85.3824,VALID,0,VALID,26.4861,VALID,26,VALID,1.2668,
2010-09-21, 01:38:04,VALID,1005.08,VALID,0,VALID,85.4053,VALID,0,VALID,26.5056,VALID,12,VALID,1.09687,
2010-09-21, 01:39:04,VALID,1005.08,VALID,0,VALID,85.5274,VALID,0,VALID,26.5056,VALID,14,VALID,0.765234,
2010-09-21, 01:40:04,VALID,1005.11,VALID,0,VALID,85.4969,VALID,0,VALID,26.5056,VALID,359,VALID,0.853516,
2010-09-21, 01:41:04,VALID,1005.1,VALID,0,VALID,85.5655,VALID,0,VALID,26.5486,VALID,32,VALID,1.33477,
2010-09-21, 01:42:04,VALID,1005.14,VALID,0,VALID,85.4053,VALID,0,VALID,26.4841,VALID,13,VALID,1.18906,
2010-09-21, 01:43:04,VALID,1005.14,VALID,0,VALID,85.3748,VALID,0,VALID,26.5056,VALID,29,VALID,0.933984,
2010-09-21, 01:44:04,VALID,1005.11,VALID,0,VALID,85.3138,VALID,0,VALID,26.5446,VALID,18,VALID,1.69141,
2010-09-21, 01:45:04,VALID,1005.1,VALID,0,VALID,85.0544,VALID,0,VALID,26.6225,VALID,10,VALID,1.08008,
2010-09-21, 01:46:04,VALID,1005.13,VALID,0,VALID,84.8713,VALID,0,VALID,26.6225,VALID,10,VALID,1.01016,
2010-09-21, 01:47:04,VALID,1005.14,VALID,0,VALID,84.5204,VALID,0,VALID,26.7004,VALID,17,VALID,1.54883,
2010-09-21, 01:48:04,VALID,1005.16,VALID,0,VALID,84.4364,VALID,0,VALID,26.7004,VALID,9,VALID,0.70625,
2010-09-21, 01:49:04,VALID,1005.14,VALID,0,VALID,84.6348,VALID,0,VALID,26.6809,VALID,18,VALID,0.932031,
2010-09-21, 01:50:04,VALID,1005.18,VALID,0,VALID,84.6424,VALID,0,VALID,26.6614,VALID,358,VALID,1.07383,
2010-09-21, 01:51:04,VALID,1005.21,VALID,0,VALID,84.5356,VALID,0,VALID,26.683,VALID,2,VALID,1.30117,
2010-09-21, 01:52:04,VALID,1005.2,VALID,0,VALID,84.5814,VALID,0,VALID,26.6614,VALID,1,VALID,1.96328,
2010-09-21, 01:53:04,VALID,1005.21,VALID,0,VALID,84.4517,VALID,0,VALID,26.6809,VALID,345,VALID,1.00273,
2010-09-21, 01:54:04,VALID,1005.21,VALID,0,VALID,84.4136,VALID,0,VALID,26.7024,VALID,357,VALID,1.02188,
2010-09-21, 01:55:04,VALID,1005.21,VALID,0,VALID,84.6501,VALID,0,VALID,26.6225,VALID,359,VALID,1.15078,
2010-09-21, 01:56:04,VALID,1005.25,VALID,0,VALID,84.9323,VALID,0,VALID,26.5446,VALID,352,VALID,1.08828,
2010-09-21, 01:57:04,VALID,1005.26,VALID,0,VALID,85.2222,VALID,0,VALID,26.4667,VALID,356,VALID,0.852734,
2010-09-21, 01:58:04,VALID,1005.3,VALID,0,VALID,85.68,VALID,0,VALID,26.4082,VALID,2,VALID,1.16172,
2010-09-21, 01:59:04,VALID,1005.34,VALID,0,VALID,85.8096,VALID,0,VALID,26.3887,VALID,355,VALID,0.666797,
2010-09-21, 02:00:04,VALID,1005.35,VALID,0,VALID,86.1224,VALID,0,VALID,26.4082,VALID,20,VALID,1.08281,
2010-09-21, 02:01:04,VALID,1005.36,VALID,0,VALID,85.9317,VALID,0,VALID,26.4492,VALID,19,VALID,1.17188,
2010-09-21, 02:02:04,VALID,1005.37,VALID,0,VALID,85.9088,VALID,0.100563,VALID,26.4472,VALID,18,VALID,0.794141,
2010-09-21, 02:03:04,VALID,1005.4,VALID,0,VALID,85.8249,VALID,0,VALID,26.4277,VALID,5,VALID,0.630078,
2010-09-21, 02:04:04,VALID,1005.41,VALID,0,VALID,85.9927,VALID,0,VALID,26.4277,VALID,10,VALID,0.624609,
2010-09-21, 02:05:04,VALID,1005.4,VALID,0,VALID,85.9317,VALID,0,VALID,26.4082,VALID,1,VALID,1.07227,
2010-09-21, 02:06:04,VALID,1005.4,VALID,0,VALID,86.1835,VALID,0,VALID,26.3887,VALID,339,VALID,1.53789,
2010-09-21, 02:07:04,VALID,1005.43,VALID,0,VALID,86.1682,VALID,0,VALID,26.4492,VALID,21,VALID,1.09297,
2010-09-21, 02:08:04,VALID,1005.45,VALID,0,VALID,86.0004,VALID,0,VALID,26.4492,VALID,359,VALID,0.559766,
2010-09-21, 02:09:04,VALID,1005.52,VALID,0,VALID,86.1072,VALID,0,VALID,26.4707,VALID,9,VALID,0.741797,
2010-09-21, 02:10:04,VALID,1005.54,VALID,0,VALID,86.0767,VALID,0,VALID,26.4277,VALID,8,VALID,0.639844,
2010-09-21, 02:11:04,VALID,1005.59,VALID,0,VALID,86.1987,VALID,0,VALID,26.4492,VALID,10,VALID,0.70625,
2010-09-21, 02:12:04,VALID,1005.58,VALID,0,VALID,86.214,VALID,0,VALID,26.4667,VALID,31,VALID,0.787891,
2010-09-21, 02:13:04,VALID,1005.6,VALID,0,VALID,86.0461,VALID,0,VALID,26.5076,VALID,3,VALID,0.772266,
2010-09-21, 02:14:04,VALID,1005.62,VALID,0,VALID,85.9927,VALID,0,VALID,26.5076,VALID,18,VALID,0.821875,
2010-09-21, 02:15:04,VALID,1005.62,VALID,0,VALID,86.0461,VALID,0.100563,VALID,26.4881,VALID,10,VALID,0.592188,
2010-09-21, 02:16:04,VALID,1005.63,VALID,0,VALID,85.9699,VALID,0,VALID,26.4881,VALID,356,VALID,0.549219,
2010-09-21, 02:17:04,VALID,1005.64,VALID,0,VALID,85.9622,VALID,0,VALID,26.4861,VALID,359,VALID,0.535156,
2010-09-21, 02:18:04,VALID,1005.68,VALID,0,VALID,86.1148,VALID,0,VALID,26.4881,VALID,1,VALID,0.0808594,
2010-09-21, 02:19:04,VALID,1005.68,VALID,0,VALID,86.2598,VALID,0,VALID,26.4277,VALID,1,VALID,0.153125,
2010-09-21, 02:20:04,VALID,1005.66,VALID,0,VALID,86.4276,VALID,0,VALID,26.3693,VALID,1,VALID,0,
2010-09-21, 02:21:04,VALID,1005.69,VALID,0,VALID,86.4886,VALID,0,VALID,26.3303,VALID,30,VALID,0.429297,
2010-09-21, 02:22:04,VALID,1005.74,VALID,0,VALID,86.7556,VALID,0,VALID,26.2739,VALID,30,VALID,0.0347656,
2010-09-21, 02:23:04,VALID,1005.75,VALID,0,VALID,87.0837,VALID,0,VALID,26.155,VALID,30,VALID,0.474609,
2010-09-21, 02:24:04,VALID,1005.79,VALID,0,VALID,87.4041,VALID,0,VALID,26.0791,VALID,30,VALID,0.364844,
2010-09-21, 02:25:04,VALID,1005.79,VALID,0,VALID,87.9,VALID,0,VALID,25.9992,VALID,30,VALID,0.333203,
2010-09-21, 02:26:04,VALID,1005.82,VALID,0,VALID,88.5255,VALID,0,VALID,25.9038,VALID,30,VALID,0.318359,
2010-09-21, 02:27:04,VALID,1005.82,VALID,0,VALID,89.1358,VALID,0,VALID,25.8239,VALID,30,VALID,0.148828,
2010-09-21, 02:28:04,VALID,1005.82,VALID,0,VALID,89.7309,VALID,0,VALID,25.7674,VALID,30,VALID,0.264453,
2010-09-21, 02:29:04,VALID,1005.84,VALID,0,VALID,90.7226,VALID,0.100563,VALID,25.6681,VALID,30,VALID,0.208594,
2010-09-21, 02:30:04,VALID,1005.82,VALID,0,VALID,93.4462,VALID,0,VALID,25.6506,VALID,30,VALID,0.331641,
2010-09-21, 02:31:04,VALID,1005.83,VALID,0,VALID,104,VALID,0.100563,VALID,25.5707,VALID,30,VALID,0.310156,
2010-09-21, 02:32:04,VALID,1005.85,VALID,0,INVALID,114.09,VALID,0,VALID,25.5142,VALID,30,VALID,0.463672,
2010-09-21, 02:33:04,VALID,1005.83,VALID,0,INVALID,125.64,VALID,0,VALID,25.4539,VALID,30,VALID,0.280078,
2010-09-21, 02:34:04,VALID,1005.84,VALID,0,INVALID,131.232,VALID,0,VALID,25.4558,VALID,30,VALID,0.49375,
2010-09-21, 02:35:04,VALID,1005.84,VALID,0,INVALID,132.613,VALID,0,VALID,25.376,VALID,30,VALID,0.333203,
2010-09-21, 02:36:04,VALID,1005.79,VALID,0,INVALID,133.627,VALID,0,VALID,25.337,VALID,30,VALID,0.0796875,
2010-09-21, 02:37:04,VALID,1005.78,VALID,0,INVALID,134.207,VALID,0,VALID,25.339,VALID,30,VALID,0.0015625,
2010-09-21, 02:38:04,VALID,1005.76,VALID,0,INVALID,134.566,VALID,0,VALID,25.3,VALID,30,VALID,0.501953,
2010-09-21, 02:39:04,VALID,1005.76,VALID,0,INVALID,134.787,VALID,0,VALID,25.2397,VALID,30,VALID,0.00195313,
2010-09-21, 02:40:04,VALID,1005.76,VALID,0,INVALID,134.985,VALID,0,VALID,25.2202,VALID,30,VALID,0.259375,
2010-09-21, 02:41:04,VALID,1005.77,VALID,0,INVALID,135.077,VALID,0,VALID,25.1813,VALID,30,VALID,0.422656,
2010-09-21, 02:42:04,VALID,1005.77,VALID,0,INVALID,135.107,VALID,0,VALID,25.1423,VALID,14,VALID,0.535937,
2010-09-21, 02:43:04,VALID,1005.8,VALID,0,INVALID,135.123,VALID,0,VALID,25.1248,VALID,12,VALID,0.488281,
2010-09-21, 02:44:04,VALID,1005.8,VALID,0,INVALID,135.214,VALID,0.100563,VALID,25.0469,VALID,12,VALID,0.430078,
2010-09-21, 02:45:04,VALID,1005.8,VALID,0,INVALID,135.306,VALID,0,VALID,25.006,VALID,12,VALID,0.486719,
2010-09-21, 02:46:04,VALID,1005.8,VALID,0,INVALID,135.374,VALID,0,VALID,24.9671,VALID,12,VALID,0.213672,
2010-09-21, 02:47:04,VALID,1005.85,VALID,0,INVALID,135.466,VALID,0,VALID,24.9885,VALID,12,VALID,0.102734,
2010-09-21, 02:48:04,VALID,1005.89,VALID,0,INVALID,135.489,VALID,0.100563,VALID,24.9885,VALID,12,VALID,0.0714844,
2010-09-21, 02:49:04,VALID,1005.93,VALID,0,INVALID,135.497,VALID,0.100563,VALID,24.9476,VALID,12,VALID,0,
2010-09-21, 02:50:04,VALID,1005.95,VALID,0,INVALID,135.519,VALID,0,VALID,24.9495,VALID,12,VALID,0,
2010-09-21, 02:51:04,VALID,1005.99,VALID,0,INVALID,135.481,VALID,0,VALID,24.9282,VALID,12,VALID,0,
2010-09-21, 02:52:04,VALID,1006,VALID,0,INVALID,135.451,VALID,0,VALID,24.9476,VALID,12,VALID,0,
2010-09-21, 02:53:04,VALID,1006.01,VALID,0,INVALID,135.451,VALID,0,VALID,24.9671,VALID,12,VALID,0.261328,
2010-09-21, 02:54:04,VALID,1006.03,VALID,0,INVALID,135.527,VALID,0,VALID,24.9866,VALID,12,VALID,0.355469,
2010-09-21, 02:55:04,VALID,1006.05,VALID,0,INVALID,135.535,VALID,0,VALID,24.9866,VALID,12,VALID,0.0515625,
2010-09-21, 02:56:04,VALID,1006.08,VALID,0,INVALID,135.611,VALID,0,VALID,25.0079,VALID,12,VALID,0.125781,
2010-09-21, 02:57:04,VALID,1006.1,VALID,0,INVALID,135.657,VALID,0,VALID,24.9671,VALID,12,VALID,0,
2010-09-21, 02:58:04,VALID,1006.09,VALID,0,INVALID,135.611,VALID,0,VALID,24.9885,VALID,12,VALID,0,
2010-09-21, 02:59:04,VALID,1006.11,VALID,0,INVALID,135.596,VALID,0,VALID,24.969,VALID,12,VALID,0,
2010-09-21, 03:00:04,VALID,1006.11,VALID,0,INVALID,135.573,VALID,0.100563,VALID,24.9476,VALID,12,VALID,0.00703125,
2010-09-21, 03:01:04,VALID,1006.14,VALID,0,INVALID,135.527,VALID,0,VALID,24.969,VALID,12,VALID,0,
2010-09-21, 03:02:04,VALID,1006.15,VALID,0,INVALID,135.565,VALID,0,VALID,24.9087,VALID,12,VALID,0.154297,
2010-09-21, 03:03:04,VALID,1006.16,VALID,0,INVALID,135.58,VALID,0,VALID,24.8697,VALID,12,VALID,0.291797,
2010-09-21, 03:04:04,VALID,1006.19,VALID,0,INVALID,135.603,VALID,0,VALID,24.8327,VALID,12,VALID,0.368359,
2010-09-21, 03:05:04,VALID,1006.21,VALID,0,INVALID,135.611,VALID,0,VALID,24.7919,VALID,12,VALID,0.199609,
2010-09-21, 03:06:04,VALID,1006.26,VALID,0,INVALID,135.519,VALID,0,VALID,24.7529,VALID,12,VALID,0.279687,
2010-09-21, 03:07:04,VALID,1006.27,VALID,0,INVALID,135.474,VALID,0,VALID,24.7529,VALID,12,VALID,0.149609,
2010-09-21, 03:08:04,VALID,1006.3,VALID,0,INVALID,135.405,VALID,0,VALID,24.7529,VALID,12,VALID,0.166406,
2010-09-21, 03:09:04,VALID,1006.29,VALID,0,INVALID,135.352,VALID,0,VALID,24.7335,VALID,12,VALID,0.113281,
2010-09-21, 03:10:04,VALID,1006.31,VALID,0,INVALID,135.26,VALID,0,VALID,24.7121,VALID,12,VALID,0.169141,
2010-09-21, 03:11:04,VALID,1006.34,VALID,0,INVALID,135.191,VALID,0,VALID,24.7529,VALID,12,VALID,0.0113281,
2010-09-21, 03:12:04,VALID,1006.36,VALID,0,INVALID,135.169,VALID,0,VALID,24.7335,VALID,12,VALID,0.24375,
2010-09-21, 03:13:04,VALID,1006.43,VALID,0,INVALID,135.016,VALID,0,VALID,24.7335,VALID,12,VALID,0.382813,
2010-09-21, 03:14:04,VALID,1006.45,VALID,0,INVALID,134.955,VALID,0,VALID,24.7529,VALID,12,VALID,0.335156,
2010-09-21, 03:15:04,VALID,1006.44,VALID,0,INVALID,135.161,VALID,0,VALID,24.7159,VALID,12,VALID,0.430078,
2010-09-21, 03:16:04,VALID,1006.46,VALID,0,INVALID,135.214,VALID,0,VALID,24.6769,VALID,12,VALID,0.351172,
2010-09-21, 03:17:04,VALID,1006.47,VALID,0,INVALID,135.146,VALID,0,VALID,24.6361,VALID,12,VALID,0.314844,
2010-09-21, 03:18:04,VALID,1006.48,VALID,0,INVALID,135.062,VALID,0,VALID,24.638,VALID,12,VALID,0.197656,
2010-09-21, 03:19:04,VALID,1006.49,VALID,0,INVALID,134.985,VALID,0,VALID,24.5972,VALID,12,VALID,0.273438,
2010-09-21, 03:20:04,VALID,1006.48,VALID,0,INVALID,134.871,VALID,0,VALID,24.6166,VALID,12,VALID,0.24375,
2010-09-21, 03:21:04,VALID,1006.48,VALID,0,INVALID,134.848,VALID,0,VALID,24.638,VALID,12,VALID,0.368359,
2010-09-21, 03:22:04,VALID,1006.51,VALID,0,INVALID,134.665,VALID,0,VALID,24.638,VALID,12,VALID,0.303906,
2010-09-21, 03:23:04,VALID,1006.53,VALID,0,INVALID,134.528,VALID,0,VALID,24.6769,VALID,12,VALID,0.289844,
2010-09-21, 03:24:04,VALID,1006.54,VALID,0,INVALID,134.497,VALID,0,VALID,24.6342,VALID,12,VALID,0.386719,
2010-09-21, 03:25:04,VALID,1006.51,VALID,0,INVALID,134.551,VALID,0.100563,VALID,24.6361,VALID,12,VALID,0.463672,
2010-09-21, 03:26:04,VALID,1006.55,VALID,0,INVALID,134.596,VALID,0,VALID,24.6361,VALID,12,VALID,0.486719,
2010-09-21, 03:27:04,VALID,1006.55,VALID,0,INVALID,134.657,VALID,0.100563,VALID,24.6166,VALID,12,VALID,0.417578,
2010-09-21, 03:28:04,VALID,1006.54,VALID,0,INVALID,134.604,VALID,0,VALID,24.5758,VALID,12,VALID,0.317578,
2010-09-21, 03:29:04,VALID,1006.53,VALID,0,INVALID,134.49,VALID,0,VALID,24.6166,VALID,12,VALID,0.335547,
2010-09-21, 03:30:04,VALID,1006.52,VALID,0,INVALID,134.428,VALID,0.100563,VALID,24.5953,VALID,12,VALID,0.405078,
2010-09-21, 03:31:04,VALID,1006.49,VALID,0,INVALID,134.36,VALID,0.100563,VALID,24.6166,VALID,12,VALID,0.330469,
2010-09-21, 03:32:04,VALID,1006.5,VALID,0,INVALID,134.36,VALID,0.100563,VALID,24.6361,VALID,12,VALID,0.311328,
2010-09-21, 03:33:04,VALID,1006.47,VALID,0,INVALID,134.337,VALID,0,VALID,24.6166,VALID,12,VALID,0.461719,
2010-09-21, 03:34:04,VALID,1006.47,VALID,0,INVALID,134.352,VALID,0.100563,VALID,24.5758,VALID,12,VALID,0.283203,
2010-09-21, 03:35:04,VALID,1006.44,VALID,0,INVALID,134.467,VALID,0,VALID,24.5777,VALID,12,VALID,0.309766,
2010-09-21, 03:36:04,VALID,1006.43,VALID,0,INVALID,134.558,VALID,0.100563,VALID,24.5582,VALID,12,VALID,0.422656,
2010-09-21, 03:37:04,VALID,1006.43,VALID,0,INVALID,134.619,VALID,0.100563,VALID,24.4998,VALID,12,VALID,0.463672,
2010-09-21, 03:38:04,VALID,1006.42,VALID,0,INVALID,134.573,VALID,0,VALID,24.5017,VALID,12,VALID,0.333594,
2010-09-21, 03:39:04,VALID,1006.44,VALID,0,INVALID,134.558,VALID,0,VALID,24.4822,VALID,12,VALID,0.448828,
2010-09-21, 03:40:04,VALID,1006.41,VALID,0,INVALID,134.497,VALID,0,VALID,24.4433,VALID,12,VALID,0.396484,
2010-09-21, 03:41:04,VALID,1006.45,VALID,0,INVALID,134.375,VALID,0,VALID,24.4628,VALID,12,VALID,0.601563,
2010-09-21, 03:42:04,VALID,1006.45,VALID,0,INVALID,134.139,VALID,0,VALID,24.4822,VALID,12,VALID,0.594141,
2010-09-21, 03:43:04,VALID,1006.42,VALID,0,INVALID,134.078,VALID,0,VALID,24.4822,VALID,10,VALID,0.525,
2010-09-21, 03:44:04,VALID,1006.44,VALID,0,INVALID,134.093,VALID,0,VALID,24.4628,VALID,8,VALID,0.64375,